Wind_Speed
19 17 16 16 17 17 17 16 14 13 12 12 11 10 10 9 8 7 7 8 10 10 9 7 5 4 3 3 4 5 7 7 7 6 6 5 5 7 8 9 9 10
18 16 15 16 17 16 15 15 13 13 12 11 10 10 9 9 8 7 8 9 10 10 9 7 5 4 3 4 5 6 7 6 6 5 5 5 5 6 7 8 9 10
18 17 15 15 15 15 15 14 13 12 11 11 10 9 8 7 8 8 8 8 9 9 8 7 5 3 3 3 5 6 6 5 4 4 4 5 5 6 6 7 8 9
18 17 15 14 14 14 14 14 13 12 11 10 9 8 7 6 6 7 7 7 8 8 7 7 5 4 3 3 4 6 6 4 3 3 3 4 5 5 5 7 8 9
18 17 15 15 14 13 13 13 12 12 11 9 9 7 6 5 5 6 6 6 6 6 6 7 6 5 4 3 4 5 5 4 3 3 3 3 3 2 3 4 6 7
17 17 16 15 14 12 12 12 11 10 10 9 8 7 5 4 4 5 6 6 5 4 5 7 6 6 5 4 4 5 5 5 4 3 3 3 3 2 1 0 2 5
17 16 16 16 13 12 12 13 12 11 10 8 7 6 4 3 3 4 5 5 4 4 5 7 6 5 6 6 6 6 6 6 6 4 4 4 4 3 3 3 2 3
16 15 16 16 13 13 14 14 13 11 9 8 6 4 3 3 3 4 4 4 3 4 5 6 5 5 6 8 7 8 8 8 7 6 5 5 4 4 4 4 4 2
16 16 17 16 13 14 16 15 13 11 9 7 6 4 3 3 4 3 4 4 3 4 5 5 4 4 6 8 8 8 8 8 8 7 7 6 6 5 5 5 4 2
17 17 18 17 14 16 17 15 13 11 10 8 6 5 4 4 4 4 4 4 4 4 4 4 3 3 6 9 9 8 8 8 9 8 8 7 7 6 5 4 4 3
18 18 20 18 16 17 16 14 13 12 11 9 8 7 6 5 5 5 5 4 4 5 5 4 3 3 5 8 8 8 7 7 8 8 8 8 7 6 5 5 5 4
19 20 21 18 16 17 16 14 13 12 11 10 10 9 9 9 9 9 9 8 7 6 6 5 4 5 6 6 7 7 7 6 6 7 8 8 7 6 5 6 5 5
19 18 17 16 16 17 17 16 14 13 12 12 13 13 13 13 12 11 11 11 11 10 9 8 6 6 6 5 6 6 6 5 5 6 7 8 8 7 5 6 6 6
18 18 18 19 19 19 19 17 16 14 12 13 14 14 14 13 11 11 11 10 11 11 10 9 8 7 6 4 4 4 4 4 4 5 7 8 8 8 6 6 7 8
18 19 21 21 21 21 20 18 16 15 14 14 14 13 13 11 9 8 9 9 9 9 8 7 6 5 6 5 4 4 3 3 3 3 5 7 8 8 6 6 7 9
20 21 21 21 22 23 20 17 16 14 11 10 10 9 8 9 8 7 8 9 9 8 7 6 5 5 5 5 5 5 4 4 4 3 3 6 7 7 6 6 7 8
18 18 18 19 21 20 14 9 9 10 10 11 10 10 10 10 10 8 8 8 8 7 6 5 5 4 4 4 4 5 5 5 5 5 4 5 6 5 5 6 6 7
12 14 15 14 15 14 11 9 10 11 11 11 10 11 11 11 11 10 8 8 8 7 6 5 5 4 4 4 3 4 4 5 5 6 6 6 6 6 5 6 6 7
10 12 14 14 13 13 12 12 13 12 12 12 12 11 11 11 11 10 9 8 8 7 7 6 6 5 5 4 3 3 3 4 4 5 6 6 6 7 7 7 7 8
9 9 11 13 13 13 13 14 14 14 13 13 12 11 10 10 10 9 9 8 8 8 7 7 7 7 6 6 5 5 5 5 5 5 6 7 7 7 8 8 8 9
10 9 10 10 10 9 9 11 12 12 12 12 11 10 10 10 9 9 8 8 8 8 8 8 8 8 7 7 7 7 7 7 7 8 8 8 9 10 10 11 11 11
13 12 11 10 8 7 7 7 8 8 9 9 9 8 8 8 8 7 7 7 8 8 8 9 9 9 9 9 9 9 9 9 10 10 10 11 12 12 13 13 13 14
16 15 14 13 11 9 8 8 7 7 6 7 6 6 5 5 6 6 6 7 7 8 9 10 10 11 11 11 12 12 12 13 13 14 14 14 15 15 16 16 16 17
15 15 15 14 13 12 11 9 8 7 7 6 5 4 4 4 4 4 5 6 6 7 8 9 10 11 11 12 12 12 13 14 14 15 16 16 17 17 18 18 19 19
13 12 12 11 10 10 10 8 7 7 6 5 4 4 3 3 3 4 4 5 6 7 8 9 10 11 12 12 13 13 13 14 14 15 16 17 17 18 18 18 19 20
9 8 7 7 6 5 4 4 3 1 1 1 2 3 4 5 5 6 7 8 9 10 11 12 13 14 15 15 16 17 17 17 18 19 19 20 20 20 21 21 20 21
Wind_Direction
174 173 173 168 162 157 149 140 136 134 126 118 112 105 99 94 102 124 137 148 159 164 168 166 167 183 196 199 200 196 198 200 200 205 206 207 213 213 212 210 207 208
170 171 169 163 160 157 150 140 136 135 127 120 112 101 95 89 97 120 131 141 153 159 163 165 167 181 194 200 198 192 192 195 194 198 203 210 223 225 218 212 207 203
168 169 166 159 157 156 152 144 140 140 132 125 117 105 97 89 92 115 130 139 150 156 158 156 157 166 182 193 194 192 193 193 190 186 193 207 221 229 224 213 206 200
169 168 164 158 158 161 158 150 145 142 137 130 123 112 104 91 91 112 131 143 150 155 154 151 153 158 173 188 188 191 195 198 195 184 186 198 208 219 224 217 210 203
170 167 164 160 162 166 161 154 148 141 139 135 128 120 110 97 96 115 138 153 157 156 153 151 150 154 167 176 177 183 189 191 188 181 184 187 186 195 218 225 220 210
173 169 167 165 164 165 160 156 150 142 140 138 132 126 115 102 105 122 145 164 168 160 155 154 149 152 163 160 158 166 171 174 171 164 160 146 131 113 80 249 221 205
175 172 170 168 166 164 162 159 153 144 141 140 135 131 119 111 116 127 143 164 173 165 159 159 152 150 158 155 148 152 155 161 159 147 142 132 112 88 67 56 67 176
178 176 174 174 172 167 164 162 155 146 143 140 139 137 124 121 128 132 142 156 163 157 159 163 157 150 159 157 152 151 152 156 156 146 143 135 111 91 75 56 50 100
181 181 179 179 175 167 164 161 153 147 145 142 141 137 124 124 133 138 146 153 156 150 154 163 160 162 171 167 161 157 155 156 157 154 149 136 116 101 86 58 46 74
182 183 184 181 172 165 162 158 154 152 148 143 141 134 122 124 139 146 148 154 152 148 153 162 164 182 186 178 172 166 161 159 158 159 157 144 127 116 111 86 59 80
181 185 187 180 168 164 164 161 159 156 149 142 137 131 125 123 129 133 133 138 144 150 157 157 156 172 180 181 182 176 169 165 162 164 163 156 146 140 136 121 92 97
183 189 187 176 166 167 169 166 163 158 149 142 136 130 125 122 121 118 114 111 114 126 137 139 142 150 151 162 176 183 183 178 172 173 173 169 168 166 159 146 125 114
183 188 187 180 176 175 173 170 164 156 148 141 135 129 126 125 123 119 114 108 103 101 104 106 108 121 132 144 163 178 190 193 192 193 189 187 188 189 185 173 157 141
180 183 185 186 184 179 176 171 162 156 151 148 143 136 131 131 130 128 126 120 113 105 100 97 95 98 106 120 148 170 180 186 192 196 198 200 200 201 207 201 185 172
177 179 181 181 180 178 174 169 163 158 152 150 149 145 141 141 145 149 148 140 130 123 120 121 120 118 114 112 123 150 167 174 174 176 187 197 200 202 206 204 196 192
173 175 176 177 180 178 172 168 168 168 168 172 180 189 181 165 167 177 171 161 152 143 144 150 153 151 141 126 121 131 149 166 173 164 162 176 184 188 191 190 190 198
170 170 172 176 180 182 183 192 200 207 223 230 224 220 208 188 187 194 186 177 171 166 167 172 171 165 158 152 142 136 139 151 165 172 168 172 178 182 191 195 195 201
178 178 183 191 195 199 218 234 223 211 211 209 199 193 189 190 198 202 195 190 190 190 194 197 197 195 184 175 170 162 156 154 161 171 178 187 195 202 209 212 212 215
185 185 190 199 201 202 206 203 195 189 184 182 181 182 186 194 201 201 200 203 205 208 215 218 220 223 222 220 218 209 200 192 185 186 189 194 201 206 211 215 221 227
171 176 183 188 188 189 190 187 186 186 184 185 187 188 191 199 204 206 207 209 214 220 226 231 233 233 234 238 242 246 247 243 236 231 225 222 223 223 225 227 229 231
149 160 166 167 169 176 183 186 187 185 184 190 199 203 204 206 211 216 219 220 224 228 232 236 239 240 240 243 248 251 255 257 256 256 254 251 250 249 248 248 247 247
128 137 141 142 147 158 168 174 179 182 183 191 206 214 213 212 215 223 232 237 239 241 244 246 249 252 255 258 262 265 267 268 268 267 266 265 264 264 264 264 264 264
116 121 123 127 136 144 149 153 159 170 176 181 198 211 212 214 219 225 234 240 244 248 251 253 254 257 261 265 268 270 271 273 273 272 271 269 268 269 270 270 271 271
115 118 118 121 127 131 132 135 138 143 151 157 169 184 191 199 206 214 224 232 241 248 252 257 261 264 266 268 269 271 271 272 272 272 272 272 271 272 273 274 275 275
111 116 120 122 121 118 117 123 128 131 140 152 168 187 203 218 227 236 243 247 253 259 262 265 269 271 274 275 276 276 275 274 274 274 273 273 273 274 275 276 277 278
90 98 110 116 117 114 110 117 122 106 98 228 243 246 251 260 265 268 271 272 273 274 275 276 277 278 279 280 281 281 281 281 280 279 278 277 276 275 275 274 274 274
Height
1529 1531 1532 1533 1534 1536 1537 1539 1541 1542 1543 1544 1544 1545 1545 1546 1547 1548 1548 1549 1550 1551 1552 1553 1554 1554 1555 1556 1557 1558 1559 1560 1560 1561 1562 1562 1563 1564 1565 1566 1566 1567
1529 1530 1532 1533 1534 1536 1537 1539 1540 1541 1542 1543 1544 1544 1545 1546 1546 1547 1548 1549 1550 1551 1552 1553 1553 1554 1554 1555 1556 1557 1558 1559 1560 1560 1561 1562 1563 1563 1564 1565 1566 1567
1528 1530 1531 1532 1534 1535 1537 1538 1539 1541 1542 1542 1543 1544 1545 1545 1546 1546 1547 1548 1549 1550 1551 1552 1553 1553 1554 1554 1555 1557 1557 1558 1559 1560 1560 1561 1562 1563 1563 1564 1565 1566
1527 1529 1530 1532 1534 1535 1536 1537 1539 1540 1541 1542 1543 1544 1544 1545 1546 1546 1547 1548 1549 1550 1551 1551 1552 1553 1553 1554 1555 1556 1557 1557 1558 1559 1560 1561 1562 1562 1563 1564 1564 1565
1527 1528 1530 1531 1533 1535 1536 1537 1538 1540 1541 1542 1543 1544 1544 1545 1546 1546 1547 1548 1548 1549 1550 1551 1552 1552 1553 1553 1554 1555 1556 1557 1558 1558 1559 1560 1561 1562 1563 1563 1564 1565
1527 1528 1529 1531 1533 1535 1536 1537 1538 1540 1541 1542 1543 1544 1544 1545 1546 1546 1547 1547 1548 1549 1550 1550 1551 1552 1553 1553 1554 1555 1555 1556 1557 1558 1559 1560 1561 1562 1562 1563 1563 1564
1526 1527 1528 1531 1532 1534 1535 1536 1538 1539 1541 1542 1542 1543 1544 1545 1545 1546 1546 1547 1547 1548 1549 1550 1551 1552 1553 1553 1554 1555 1555 1556 1557 1558 1559 1560 1561 1562 1562 1563 1563 1563
1525 1527 1528 1530 1531 1533 1534 1536 1538 1539 1540 1541 1542 1543 1544 1544 1545 1545 1546 1546 1547 1548 1549 1550 1551 1552 1552 1553 1554 1554 1555 1556 1557 1558 1559 1560 1561 1562 1562 1562 1563 1563
1524 1525 1527 1529 1531 1532 1534 1535 1537 1538 1539 1540 1541 1542 1543 1544 1544 1545 1545 1546 1547 1548 1549 1550 1551 1551 1552 1553 1553 1554 1555 1556 1557 1558 1559 1560 1561 1561 1562 1563 1563 1563
1522 1524 1526 1528 1530 1532 1533 1535 1537 1538 1539 1540 1541 1541 1542 1543 1544 1544 1545 1546 1547 1548 1549 1550 1551 1551 1552 1552 1553 1554 1555 1556 1557 1558 1558 1559 1560 1561 1562 1562 1563 1563
1521 1523 1525 1527 1529 1532 1533 1535 1536 1537 1538 1539 1540 1541 1542 1543 1544 1544 1545 1546 1547 1548 1549 1550 1550 1551 1551 1552 1553 1554 1555 1555 1556 1557 1558 1559 1560 1561 1562 1562 1563 1563
1520 1522 1524 1526 1529 1531 1533 1534 1535 1537 1537 1538 1539 1540 1541 1543 1544 1545 1545 1546 1547 1548 1549 1549 1550 1550 1551 1552 1553 1553 1554 1555 1556 1557 1558 1559 1559 1560 1561 1562 1563 1563
1519 1522 1525 1528 1529 1531 1532 1533 1534 1536 1537 1538 1539 1540 1542 1543 1544 1545 1546 1546 1547 1548 1549 1549 1550 1551 1551 1552 1552 1553 1554 1555 1555 1556 1557 1558 1559 1560 1561 1562 1563 1563
1518 1521 1524 1526 1528 1529 1531 1532 1533 1535 1536 1538 1539 1540 1542 1543 1544 1545 1546 1546 1547 1548 1548 1549 1550 1551 1551 1552 1552 1553 1553 1554 1555 1556 1557 1558 1559 1559 1561 1562 1562 1563
1518 1520 1522 1525 1528 1529 1530 1531 1533 1534 1536 1537 1539 1540 1541 1543 1544 1546 1546 1546 1547 1547 1548 1549 1550 1550 1551 1551 1551 1552 1553 1553 1554 1555 1556 1557 1558 1559 1560 1561 1562 1563
1517 1519 1522 1525 1527 1528 1529 1531 1533 1534 1536 1537 1538 1539 1540 1542 1544 1546 1546 1546 1546 1547 1547 1548 1549 1550 1550 1551 1551 1551 1552 1553 1553 1554 1555 1556 1557 1558 1559 1560 1561 1562
1516 1518 1522 1524 1526 1527 1529 1530 1532 1533 1534 1536 1537 1538 1539 1541 1544 1545 1545 1546 1546 1546 1547 1548 1549 1549 1550 1550 1551 1551 1552 1552 1553 1554 1555 1556 1557 1558 1559 1559 1560 1561
1516 1518 1521 1524 1526 1527 1528 1530 1531 1532 1533 1534 1536 1537 1539 1541 1543 1544 1544 1545 1545 1546 1547 1547 1548 1549 1549 1550 1550 1551 1552 1552 1553 1554 1554 1555 1556 1557 1558 1559 1559 1560
1516 1518 1520 1523 1525 1526 1527 1529 1530 1531 1532 1534 1535 1537 1538 1540 1542 1542 1543 1544 1544 1545 1546 1547 1548 1548 1549 1549 1550 1550 1551 1552 1553 1553 1554 1555 1555 1556 1557 1557 1558 1559
1517 1519 1521 1523 1524 1525 1527 1528 1529 1531 1532 1533 1535 1536 1537 1539 1540 1541 1542 1542 1543 1544 1545 1546 1547 1547 1548 1548 1549 1549 1550 1551 1552 1553 1553 1554 1555 1555 1556 1556 1557 1557
1519 1520 1522 1523 1525 1526 1527 1529 1530 1531 1532 1533 1534 1535 1537 1538 1539 1540 1541 1541 1542 1543 1544 1545 1546 1546 1547 1547 1548 1548 1549 1550 1550 1551 1552 1553 1554 1554 1555 1555 1556 1556
1521 1522 1523 1525 1526 1527 1528 1529 1530 1531 1532 1533 1534 1535 1537 1538 1539 1539 1540 1541 1541 1542 1543 1544 1544 1545 1545 1546 1546 1547 1547 1548 1549 1550 1550 1551 1552 1552 1553 1553 1554 1554
1523 1524 1524 1525 1527 1528 1529 1530 1531 1532 1532 1533 1534 1535 1536 1537 1538 1539 1540 1540 1541 1541 1542 1542 1543 1543 1543 1544 1544 1545 1545 1546 1547 1547 1548 1549 1549 1550 1550 1551 1551 1552
1524 1525 1526 1527 1527 1528 1529 1530 1531 1532 1533 1534 1534 1535 1536 1537 1537 1538 1539 1539 1540 1540 1540 1541 1541 1541 1541 1542 1542 1543 1543 1544 1544 1545 1545 1546 1547 1547 1547 1548 1548 1548
1525 1526 1527 1527 1528 1529 1530 1531 1532 1533 1533 1534 1535 1535 1536 1536 1537 1537 1538 1538 1538 1539 1539 1539 1539 1539 1540 1540 1540 1541 1541 1542 1542 1543 1543 1543 1544 1544 1544 1545 1545 1545
1525 1526 1527 1528 1528 1529 1530 1531 1532 1532 1533 1534 1534 1535 1535 1536 1536 1536 1536 1537 1537 1537 1537 1537 1537 1537 1537 1538 1538 1538 1539 1539 1539 1540 1540 1540 1541 1541 1541 1541 1542 1542